Voltar ao catálogo

OV2-3

AtivoMilitarHEO
NORAD 13912·PAYLOAD·🇺🇸 United States

Lançado Dec 21, 1965 de Cape Canaveral Space Force Station

Loading…

Próximas Passagens (próximas 24 horas)

TLE

AtualizadoSource: Space-Track

Época: Sep 14, 2026, 07:56 UTC

1 13912U 65108V   26257.33088526  .00008506  00000-0  82148-3 0  9998
2 13912  26.6249 325.3816 5195050 347.2586   3.5284  5.33841905575462

Acompanhe OV2-3 em tempo real com AllMySat

Download on the App Store